AirNav   Air Wisconsin pilot careers
 
 1295 users online  

8N1 Grimes Airport
Bethel, Pennsylvania, USA

GOING TO BETHEL?


FAA INFORMATION EFFECTIVE 21 JUNE 2018

Location

FAA Identifier: 8N1
Lat/Long: 40-29-05.3310N / 076-15-48.8230W
40-29.088850N / 076-15.813717W
40.4848142 / -76.2635619
(estimated)
Elevation: 582 ft. / 177 m (estimated)
Variation: 11W (1985)
From city: 2 miles E of BETHEL, PA
Time zone: UTC -4 (UTC -5 during Standard Time)
Zip code: 19507

Airport Operations

Airport use: Open to the public
Control tower: no
ARTCC: NEW YORK CENTER
FSS: WILLIAMSPORT FLIGHT SERVICE STATION
NOTAMs facility: IPT (NOTAM-D service available)
Attendance: IREG
Wind indicator: yes
Segmented circle: no

Airport Communications

CTAF/UNICOM: 122.8
WX AWOS-3 at ZER (14 nm N): 127.575 (570-544-2778)
WX ASOS at MUI (14 nm W): 124.175 (717-861-6493)
WX ASOS at RDG (15 nm SE): PHONE 610-372-9863

Nearby radio navigation aids

VOR radial/distance  VOR name  Freq  Var
RAVr116/15.9RAVINE VORTAC114.6011W
LRPr012/21.9LANCASTER VOR/DME117.3009W
ETXr267/27.1EAST TEXAS VOR/DME110.2009W
SEGr131/33.7SELINSGROVE VOR/DME110.4008W
PTWr305/35.8POTTSTOWN VORTAC116.5009W
MIPr160/37.1MILTON VORTAC109.2009W
HARr083/38.4HARRISBURG VORTAC112.5010W
FJCr258/39.6ALLENTOWN VORTAC117.5010W

 
NDB name  Hdg/Dist  Freq  Var  ID
BELLGROVE087/13.532810WBZJ -... --.. .---

Airport Services

Parking: tiedowns
Bottled oxygen: NONE
Bulk oxygen: NONE

Runway Information

Runway 11/29

Dimensions: 2720 x 100 ft. / 829 x 30 m
Surface: turf, in good condition
FIRST 700 FT OF RY ON W END UNUSBL IN EARLY SPRING DUE TO WET CONDS.
Runway edge markings: 11/29 MARKED WITH WHITE DISCS
RUNWAY 11  RUNWAY 29
Gradient: 0.5%0.5%
Traffic pattern: leftleft
Displaced threshold: 250 ft.
RWY 11/29 DSPLCD THRS MARKED BY RED GROUND PAVERS
270 ft.
Obstructions: 14 ft. road, 66 ft. from runway, 51 ft. right of centerline, 4:1 slope to clear
RY 11 APCH SLOPE 22:1 TO DSPLCD THLD.
41 ft. road, 172 ft. from runway, 129 ft. right of centerline, 4:1 slope to clear
RY 29 APCH SLOPE 10:1 TO DSPLCD THR.

Airport Ownership and Management from official FAA records

Ownership: Privately-owned
Owner: PAUL D DOUGHERTY JR
371 AIRPORT RD
BETHEL, PA 19507
Phone 717-933-9566
Manager: PAUL D DOUGHERTY JR
371 AIRPORT RD
BETHEL, PA 19507
Phone 717-933-9566

Airport Operational Statistics

Aircraft based on the field: 32
Single engine airplanes: 32
    
Aircraft operations: avg 30/week *
65% local general aviation
32% transient general aviation
3% military
* for 12-month period ending 23 June 2017

Additional Remarks

FOR CD CTC RDG ATCT, WHEN CLSD CTC MDT APCH AT 800-932-0712.
AD CLSD SS-SR

Instrument Procedures

There are no published instrument procedures at 8N1.

Some nearby airports with instrument procedures:

9D4 - Deck Airport (9 nm S)
08N - Keller Brothers Airport (12 nm S)
KZER - Schuylkill County/Joe Zerbey Airport (14 nm N)
74N - Bendigo Airport (14 nm W)
KMUI - Muir Army Airfield (Fort Indiantown Gap) (14 nm W)
KRDG - Reading Regional Airport/Carl A Spaatz Field (15 nm SE)
58N - Reigle Field Airport (19 nm SW)
 
Loc | Ops | Rwys | IFR | FBO | Links
Com | Nav | Svcs | Stats | Notes

AirNav Hotels Sweepstakes
 
Area around 8N1 (Grimes Airport)
 
Road maps at: MapQuest Bing Google
 
Aerial photo
WARNING: Photo may not be current or correct
Aerial photo of 8N1 (Grimes Airport)
Photo taken 07-Sep-2015
looking west from 1000 AGL.

Do you have a better or more recent aerial photo of Grimes Airport that you would like to share? If so, please send us your photo.

 
Sectional chart

 
Airport distance calculator
Flying to Grimes Airport? Find the distance to fly.

From to 8N1

Sunrise and sunset
Times for 22-Jun-2018
 Local
(UTC-4)
 Zulu
(UTC)
Morning civil twilight05:0309:03
Sunrise05:3609:36
Sunset20:3800:38
Evening civil twilight21:1101:11

Current date and time
Zulu (UTC)  22-Jun-2018 21:30:06
Local (UTC-4)  22-Jun-2018 17:30:06
 
METAR
KMUI 
14nm W 
222056Z 10009KT 10SM SCT028 OVC075 22/15 A2994 RMK AO2A SLP139 T02200151 55007 $
KRDG 
15nm SE 
222054Z 11007KT 10SM -RA SCT025 OVC090 21/17 A2995 RMK AO2 RAB52 SLP145 P0000 60000 T02110172 58005
KLNS 
22nm S 
222107Z 13011G18KT 10SM SCT026 BKN031 OVC070 22/17 A2994 RMK AO2 T02170167
KMDT 
29nm SW 
222103Z 12012KT 10SM FEW028 BKN036 OVC065 22/16 A2993 RMK AO2 RAE00 P0000 T02170161
TAF
KMUI 
14nm W 
221900Z 2219/2401 09009KT 9000 -SHRA BKN025 BKN035 OVC100 QNH2991INS BECMG 2222/2223 10009KT 8000 -SHRA BKN015 OVC025 QNH2988INS BECMG 2306/2307 07007KT 3200 -SHRA OVC005 QNH2978INS BECMG 2315/2316 09009KT 6000 -SHRA OVC009 QNH2974INS TEMPO 2321/2401 28025G45KT 1600 TSRAGR BKN012CB OVC030 TX24/2220Z TN17/2306Z LAST NO AMDS AFT 2305 NEXT 2511
KRDG 
15nm SE 
221720Z 2218/2318 12010G18KT P6SM -SHRA BKN025 TEMPO 2218/2221 5SM SHRA OVC020 FM230000 09009KT P6SM OVC030 FM230400 09006KT 6SM -SHRA OVC015 FM230900 08008KT 4SM -SHRA BR OVC008 FM231600 16006KT P6SM VCSH BKN015 OVC040
NOTAMs
Click for the latest NOTAMs
NOTAMs are issued by the DoD/FAA and will open in a separate window not controlled by AirNav.

 

 
 

Things to do: Attractions on or near the airport

  
 Business Name 
 
 Contact 
 
 Services / Description 
 
Distance
 
Comments
  
Golden Age Air Museum 717-933-9566
no information available

If you are affiliated with Golden Age Air Museum and would like to show here your services, contact info, web link, logo, and more, click here
on airport  
   write
 

Would you like to see your business listed on this page?

 If your business provides an interesting product or service to pilots, flight crews, aircraft, or users of the Grimes Airport, you should consider listing it here.  To start the listing process, click on the button below
 
Add a business
 

Other Pages about Grimes Airport

Update a link
 
Copyright © AirNav, LLC. All rights reserved. Privacy Policy  Contact